モス彗星

281P/MOSS (2023)

English version
Home page
Updated on November 24, 2021

---------------------------------------------------------------------

・ プロフィール

・ 軌道要素

Epoch 2022 Jan. 21.0 TT = JDT 2459600.5                                         
T 2023 Feb. 1.82017 TT                                  Rudenko                 
q   4.0345103            (2000.0)            P               Q                  
n   0.09159781     Peri.   26.68069     -0.40299287     -0.91150683             
a   4.8739305      Node    87.17994     +0.82430390     -0.40051113             
e   0.1722265      Incl.    4.71908     +0.39764284     -0.09352077             
P  10.8                                                                         
From 103 observations 2000 Nov. 17-2021 Nov. 7, mean residual 0".6.             

・ 光度変化

        m1 = 11.0 + 5 logΔ + 10.0 log r

---------------------------------------------------------------------

軌道要素はM.P.E.C. 2021-W31に掲載されたものです。
光度グラフはComet for Windowsで作成したものです。

---------------------------------------------------------------------

Copyright(C) Seiichi Yoshida (comet@aerith.net). All rights reserved.